Temp
28 26 25 27 27 28 29 29 28 28 25 25 24 23 23 23 23 25 24 27 27 26 26 26 25 26 25 26 26 26 26 26 26 26 25 26 26 26 25 26 26 26 26 26
26 25 27 28 29 29 29 29 28 26 25 26 23 24 24 24 24 24 25 26 27 26 25 25 25 24 24 25 26 25 26 26 26 26 26 26 26 26 26 26 26 26 27 26
25 26 28 29 29 29 28 28 28 28 25 26 25 25 25 25 25 25 26 27 28 27 25 26 25 24 24 24 25 26 26 26 26 26 26 26 26 26 26 26 26 26 26 26
25 27 28 28 29 28 27 29 30 26 25 25 26 25 26 25 25 25 26 24 26 27 27 26 25 24 24 24 26 27 26 26 26 26 26 27 26 25 26 26 26 26 26 26
25 26 26 27 28 28 28 31 30 27 25 25 25 24 25 26 26 25 25 25 25 27 27 26 25 25 25 24 25 26 27 26 27 26 26 26 25 26 26 26 26 26 26 26
25 28 27 27 29 29 30 31 29 25 24 24 25 25 26 24 28 30 27 27 26 27 28 27 26 26 25 24 24 25 26 27 26 26 26 26 26 26 26 26 26 26 26 26
26 26 28 29 28 29 28 27 26 24 24 25 24 25 29 29 28 30 30 27 27 26 28 27 26 26 25 25 24 24 25 26 26 26 26 26 26 26 26 27 26 26 26 25
22 24 26 27 27 26 25 25 23 25 24 25 25 25 28 29 30 30 31 29 28 26 28 28 27 26 26 25 24 24 24 25 26 26 26 26 26 26 26 26 27 27 27 26
20 23 25 27 28 26 26 24 25 25 24 24 24 26 29 29 27 29 29 29 29 27 28 29 27 27 26 25 25 24 24 25 26 26 26 26 26 25 26 27 27 27 27 27
22 24 25 27 28 28 26 25 25 22 25 25 25 26 28 29 28 28 29 28 29 29 29 29 28 27 26 25 25 25 25 25 26 26 26 27 26 26 26 27 27 27 27 27
20 21 24 26 25 24 24 25 24 22 22 25 24 25 25 28 27 28 27 25 27 28 29 29 28 27 26 25 25 24 24 24 24 26 26 26 26 26 26 26 27 27 27 26
22 18 21 23 25 25 24 24 23 23 24 21 22 25 28 29 25 25 24 24 24 25 26 26 27 27 25 24 24 24 24 24 24 25 25 25 25 26 25 26 27 27 27 26
22 18 20 21 22 24 26 24 24 21 20 23 24 25 27 25 25 25 24 23 22 24 25 24 24 26 26 24 23 23 24 24 24 24 24 25 25 25 25 25 26 26 26 26
20 16 19 23 22 23 26 26 25 23 20 23 23 27 26 24 24 24 23 22 22 22 22 21 20 23 27 24 22 23 23 24 24 24 24 24 25 25 26 26 26 26 26 26
19 21 21 22 24 25 26 23 25 25 25 25 26 25 25 25 24 23 23 22 21 20 21 20 19 19 21 22 23 22 22 23 23 23 23 24 25 26 25 25 26 26 26 27
14 20 22 23 24 24 22 20 23 21 21 25 23 23 22 22 23 22 21 21 19 19 19 19 19 19 19 20 22 23 22 22 22 23 23 23 23 24 25 25 25 26 27 26
13 16 18 21 22 24 20 19 20 20 20 20 24 22 21 20 21 20 19 19 18 18 17 17 17 17 17 17 19 20 22 24 23 23 23 23 23 24 24 24 24 24 25 26
14 16 15 18 21 22 19 21 21 20 19 19 21 22 21 20 19 18 18 18 17 17 16 16 16 16 15 16 17 19 20 21 22 23 24 23 24 24 23 23 24 24 24 24
13 14 16 18 16 18 19 19 19 20 18 19 19 20 20 20 19 18 17 17 16 15 15 15 16 16 15 15 15 17 18 19 19 20 22 23 23 23 23 23 23 24 23 23
12 13 17 16 19 19 19 18 19 20 18 19 18 18 18 18 18 19 16 16 15 15 14 14 15 15 15 15 15 15 15 15 16 17 19 20 21 22 23 23 23 23 23 23
13 12 17 16 16 17 17 17 18 19 18 18 16 17 17 18 17 16 16 15 14 14 14 14 15 15 15 15 15 15 15 15 15 16 17 19 20 21 22 23 23 23 23 23
11 12 14 14 15 16 17 17 19 17 17 17 16 17 16 16 16 15 14 14 14 14 14 14 14 15 15 15 15 15 15 16 15 15 16 18 19 20 20 21 22 23 23 23
13 12 14 15 15 15 14 14 15 15 16 17 17 17 16 15 15 16 15 14 14 14 13 13 13 14 15 16 15 15 15 16 17 16 16 17 18 19 20 21 22 23 22 23
13 13 13 14 14 13 13 13 14 15 15 16 16 18 16 15 15 15 15 14 14 13 13 13 13 13 13 14 15 15 16 16 16 16 16 16 17 18 19 21 22 23 22 22
10 12 12 12 12 15 14 12 13 13 14 15 15 16 17 16 16 15 14 14 14 13 13 14 13 13 13 13 14 15 15 16 16 16 15 16 16 16 17 18 20 21 22 23
10 10 11 12 10 10 11 11 11 11 12 13 13 15 15 15 16 16 15 15 14 14 14 13 13 13 13 13 14 14 15 15 15 16 15 15 15 16 16 16 17 20 21 22
Height
748 768 780 770 768 766 771 778 782 773 776 782 788 789 783 781 785 783 782 778 781 785 786 790 793 796 800 804 809 813 815 818 821 823 825 826 827 830 832 834 836 837 838 839
762 776 759 754 758 763 772 777 780 776 777 779 791 789 780 777 779 778 778 775 776 781 783 788 792 796 799 802 807 812 814 817 820 822 824 826 827 830 832 833 835 837 838 839
769 761 747 755 761 768 776 780 778 781 781 778 784 789 784 773 771 771 772 769 770 774 780 783 790 793 798 801 804 808 813 816 819 822 823 825 827 829 832 833 834 837 838 839
759 747 751 756 763 764 786 762 762 778 790 805 778 811 781 773 770 768 766 767 766 768 772 777 784 790 794 797 801 806 811 815 818 821 823 823 825 827 830 832 834 836 838 839
763 754 758 762 760 756 767 753 762 772 786 791 792 806 783 765 772 766 761 759 761 761 765 771 776 781 787 794 799 802 808 813 817 819 823 823 825 827 830 832 834 836 837 838
753 737 743 749 745 748 748 756 764 780 795 812 790 797 783 777 750 742 746 747 752 756 758 764 770 777 784 790 796 799 804 809 813 817 821 824 825 827 830 832 835 837 838 839
754 752 741 735 753 748 759 779 808 817 818 813 787 798 760 739 738 733 734 740 743 748 752 758 767 773 780 786 792 796 799 804 809 813 818 822 824 826 828 830 832 834 837 838
781 781 750 738 749 764 769 779 814 822 822 805 785 796 760 726 713 717 718 724 738 743 745 749 756 764 773 779 786 791 795 799 803 809 815 819 822 823 826 829 830 832 834 837
782 774 741 733 735 747 766 783 768 794 796 807 795 766 737 724 722 716 719 725 730 738 739 741 749 758 766 774 780 785 790 797 800 804 809 814 820 822 823 826 829 831 833 836
753 766 743 732 730 736 750 754 786 797 811 815 796 780 768 737 728 720 720 723 724 729 736 739 747 754 763 770 776 783 787 792 797 802 807 810 814 820 823 824 825 828 831 834
751 760 756 741 748 758 760 767 771 780 792 802 814 790 739 730 722 721 725 726 725 726 732 737 741 752 761 772 778 784 787 791 793 799 804 808 810 816 820 821 822 825 829 832
743 763 773 757 737 734 744 757 763 789 791 795 795 781 722 716 725 718 727 728 727 727 730 736 742 749 759 768 770 776 785 789 791 794 800 804 808 812 816 817 820 821 824 828
740 768 779 771 757 742 743 748 751 766 775 782 792 780 724 721 729 720 719 723 726 726 726 732 738 745 750 757 768 775 775 783 788 793 796 800 804 807 811 813 816 818 820 823
737 768 767 762 763 750 745 740 742 756 783 775 774 755 741 735 736 735 730 729 730 728 727 731 735 735 741 749 757 763 771 776 783 787 791 794 797 800 804 809 811 814 816 818
748 756 751 745 736 735 737 748 741 748 747 757 750 753 743 731 733 739 737 734 737 737 731 725 732 739 743 745 751 760 768 770 776 783 787 788 791 795 799 803 805 808 810 812
763 758 748 746 736 736 750 753 744 749 752 742 744 748 740 738 734 737 743 745 745 746 745 745 752 749 752 754 755 760 763 770 775 783 780 785 789 791 792 796 798 802 803 806
778 769 765 760 744 741 765 762 759 758 756 755 746 738 739 751 750 750 749 754 755 758 761 761 762 759 755 759 764 763 762 766 770 774 776 780 783 785 787 789 793 794 797 799
776 770 771 767 750 769 766 753 751 757 761 756 745 741 744 755 763 758 758 754 755 757 757 758 759 760 759 765 765 764 764 765 768 769 772 774 775 777 781 784 786 787 789 792
770 769 770 768 780 771 766 762 762 759 771 764 763 757 754 754 759 763 764 764 764 765 765 763 765 763 765 767 767 764 764 767 765 766 768 768 771 770 773 775 777 778 782 784
766 768 758 772 767 775 768 763 758 755 776 764 763 763 762 760 771 770 771 772 773 772 770 767 768 768 767 767 767 765 765 765 764 764 764 765 765 765 766 766 768 770 774 776
771 773 764 771 777 773 767 764 757 772 778 766 764 765 765 767 770 774 777 777 779 781 775 773 773 771 771 771 771 766 765 766 766 764 760 760 758 758 759 762 762 765 768 769
785 786 779 780 782 788 768 759 765 768 766 767 765 769 771 774 775 776 777 779 779 778 772 771 769 769 769 770 768 765 763 763 762 760 757 755 755 754 752 751 753 755 761 762
783 784 780 777 784 787 781 777 772 769 770 768 766 765 771 777 779 780 782 784 781 778 777 775 775 772 771 771 771 767 767 764 761 759 757 755 752 750 748 744 746 748 750 753
783 781 782 780 788 788 786 781 779 778 775 772 769 766 768 778 783 784 779 779 780 780 781 781 780 772 778 779 773 769 766 763 760 760 758 754 750 747 745 743 741 743 744 745
792 785 788 792 793 783 784 792 792 786 781 777 773 772 766 778 779 779 780 783 780 781 778 775 778 772 775 778 771 769 766 764 763 761 761 757 752 747 745 743 742 739 738 738
795 793 792 796 802 802 798 796 797 795 792 788 783 778 771 777 779 776 774 774 782 784 781 783 787 778 776 772 770 770 767 766 765 762 761 756 753 749 746 744 739 737 734 732
Wind_Speed
2 3 5 8 5 5 3 1 6 2 5 3 4 6 10 10 5 6 7 11 14 12 17 24 30 32 33 36 33 30 27 22 20 18 12 8 11 14 14 13 12 14 11 11
2 4 9 4 4 4 3 3 4 1 5 3 6 7 6 10 10 8 9 10 14 9 13 19 26 28 31 36 34 30 28 26 21 21 15 13 14 18 15 14 13 13 10 12
7 6 8 5 3 4 3 4 3 2 3 2 4 4 6 8 7 13 13 12 13 15 15 17 23 28 29 32 36 32 29 27 26 22 17 14 15 20 14 13 13 12 8 14
5 5 5 5 5 7 5 7 8 6 5 4 2 3 5 7 14 14 16 9 13 14 17 17 23 27 30 34 38 35 30 28 27 22 18 14 19 19 18 18 14 12 10 12
8 7 8 9 6 7 10 7 6 6 5 3 1 3 6 3 8 10 13 13 12 14 18 20 24 34 35 32 37 38 34 29 29 24 20 14 19 26 24 18 15 14 13 11
8 2 6 9 7 7 3 2 2 4 3 2 6 5 6 6 13 16 14 17 17 14 19 19 30 33 32 32 34 39 38 35 31 28 23 19 17 27 23 19 19 17 14 12
0 4 4 2 4 2 5 5 2 2 0 6 6 3 13 8 6 13 17 14 16 16 17 19 19 26 30 31 32 36 40 39 34 31 26 21 18 24 25 23 22 21 17 14
7 8 7 3 8 7 6 9 6 6 4 4 6 6 8 8 15 13 16 15 12 16 16 21 22 31 34 35 35 35 38 38 38 34 30 25 18 19 27 26 24 20 22 22
5 5 4 7 4 11 4 5 9 5 1 2 5 7 9 5 9 11 15 14 17 17 18 22 23 32 34 35 36 38 37 38 38 38 34 31 24 18 26 29 27 24 23 24
9 1 4 4 5 3 7 6 4 2 6 5 5 5 5 5 2 3 8 15 13 13 16 15 17 29 30 32 36 36 38 39 40 39 38 35 31 24 21 22 26 27 24 22
5 5 5 4 4 8 3 3 3 5 5 6 2 7 7 8 8 7 8 8 6 8 12 13 15 24 27 28 30 29 31 34 35 40 41 38 37 30 23 22 21 25 24 22
2 6 5 9 2 4 8 9 8 5 5 2 4 7 5 3 4 11 8 9 6 8 9 8 8 21 23 27 33 36 29 30 33 38 39 40 38 36 30 27 24 24 27 24
2 1 1 9 6 3 5 5 5 4 3 8 5 6 8 6 6 6 15 8 7 5 6 6 6 6 23 31 29 33 37 33 31 31 34 37 38 38 38 33 30 26 25 24
5 3 6 10 7 5 3 4 5 6 4 5 7 5 3 8 7 4 9 8 7 5 5 10 8 2 23 29 33 34 36 36 35 30 34 36 40 41 43 41 36 34 30 28
4 2 2 3 4 4 4 4 1 5 4 7 8 10 4 12 14 9 9 13 13 11 12 14 14 10 10 21 24 25 29 38 36 27 30 35 40 41 41 42 44 40 37 37
7 3 2 1 3 6 5 9 5 8 5 3 7 2 0 7 11 16 12 12 14 12 12 12 9 11 15 15 10 19 25 28 30 33 29 29 29 34 39 39 40 44 44 43
4 2 1 4 3 4 5 11 5 9 11 6 5 6 13 10 13 11 14 13 14 13 9 8 9 11 17 16 12 10 8 24 35 38 36 29 31 34 37 39 37 39 42 43
5 1 1 3 2 4 5 3 13 15 14 16 10 9 13 14 12 12 10 14 15 10 11 10 10 13 18 14 10 9 9 8 10 24 29 30 31 34 34 32 36 39 39 39
16 1 2 4 4 3 1 3 2 1 7 12 6 9 14 13 12 15 12 11 9 8 8 11 10 13 14 14 14 10 10 8 8 6 10 20 27 32 31 31 35 40 33 34
7 6 4 2 5 4 2 4 7 3 4 7 6 9 6 2 5 4 8 9 8 9 11 13 12 12 12 14 11 14 14 13 12 9 7 8 14 19 27 33 36 36 33 35
4 5 4 2 4 2 5 12 6 4 5 4 7 9 9 5 4 7 7 8 8 6 10 13 12 13 11 13 11 13 12 13 12 13 11 10 9 12 21 31 33 31 31 31
3 2 4 1 4 3 17 5 2 5 2 5 9 8 10 7 8 8 7 6 6 8 12 16 15 15 15 16 15 16 17 18 17 16 14 14 12 12 15 22 33 36 30 29
3 2 2 4 5 3 10 10 7 4 5 3 6 11 10 6 3 4 3 1 4 9 12 12 10 11 13 13 14 15 16 17 19 18 16 17 15 14 16 14 24 26 30 31
2 4 2 0 5 5 13 16 17 13 6 6 6 6 9 6 5 4 3 4 5 10 10 10 9 14 12 10 10 13 15 17 20 19 18 18 19 19 16 15 11 21 24 26
2 3 2 4 4 2 6 13 14 16 14 14 11 7 9 3 2 3 4 3 6 6 8 12 14 13 13 12 14 15 15 15 16 18 18 19 18 18 18 17 13 9 19 25
2 2 2 2 4 2 5 12 14 14 12 12 9 10 11 5 6 3 3 4 2 2 4 4 3 10 13 16 16 16 15 13 12 14 18 18 18 19 18 21 20 12 9 11
Wind_Direction
193 125 210 220 170 186 118 123 283 108 132 135 184 176 195 195 211 232 202 194 197 194 189 180 183 185 178 179 183 187 189 190 188 186 191 208 198 190 189 178 151 146 155 163
46 195 227 194 173 207 130 254 277 294 147 142 180 218 239 193 217 218 223 207 197 180 168 174 174 174 177 180 187 190 193 193 196 191 190 191 190 192 188 181 171 166 175 184
174 223 222 162 209 232 145 191 247 241 134 35 186 270 194 226 202 214 230 217 199 177 177 172 174 177 181 182 187 189 192 199 194 193 192 186 202 201 193 191 186 179 176 175
209 225 218 201 192 179 266 176 237 138 121 218 203 265 257 198 198 192 202 187 193 182 179 173 175 180 183 189 189 189 194 197 196 197 188 182 190 185 196 200 192 186 177 177
223 187 184 213 191 158 238 158 205 174 166 121 89 65 267 156 205 200 201 200 192 181 179 179 181 182 188 187 190 191 194 199 202 201 197 188 195 192 198 202 192 177 178 186
211 240 184 190 203 187 52 43 38 74 100 286 195 138 261 190 212 209 196 199 186 183 181 184 185 183 185 187 189 192 195 199 202 201 198 203 199 198 197 200 198 194 193 207
233 243 259 167 188 82 102 90 316 354 301 227 183 152 249 252 217 216 195 200 185 178 182 179 182 185 185 185 188 192 196 200 204 205 200 203 206 208 206 204 200 201 205 207
169 246 174 181 176 170 168 156 164 187 213 241 172 231 248 240 272 198 213 174 182 181 185 183 183 186 186 187 188 189 193 200 203 205 206 207 209 210 207 212 204 208 208 216
134 250 270 210 146 145 196 154 191 134 16 76 235 295 307 290 314 185 178 184 188 189 190 187 184 187 188 189 191 191 193 202 205 205 206 208 215 220 212 215 213 217 218 218
208 155 241 193 119 225 157 182 86 8 176 212 275 266 238 256 146 187 176 185 195 193 194 185 182 189 190 192 192 194 196 199 206 210 212 211 212 219 217 212 219 224 225 224
128 119 270 83 195 177 89 155 85 127 145 184 183 273 218 235 185 168 107 86 86 172 183 185 182 180 181 187 195 200 199 200 201 211 216 216 215 216 213 213 215 221 227 231
256 149 207 208 229 194 169 188 164 156 230 215 167 255 274 199 167 130 124 111 121 128 126 117 157 172 173 181 189 195 203 205 206 208 215 218 219 217 214 213 218 221 227 234
168 327 161 328 348 2 189 193 157 125 109 196 168 262 341 107 112 142 141 124 104 112 109 82 107 210 182 182 182 196 196 204 207 208 212 219 220 222 223 221 220 221 223 228
85 125 192 214 209 189 160 152 169 145 140 182 202 216 247 94 95 106 92 80 76 105 118 94 53 213 177 176 180 186 197 204 207 208 211 216 221 225 228 229 227 226 229 232
52 230 210 246 182 178 100 33 50 170 193 171 209 185 211 149 136 115 96 89 72 43 28 55 46 40 91 156 178 188 188 205 210 209 213 218 223 225 229 231 233 232 232 236
353 276 264 201 245 220 112 23 49 57 350 209 122 133 292 54 114 112 94 82 81 63 43 43 54 63 55 60 130 189 192 201 210 214 224 223 224 225 229 233 236 238 237 238
311 332 110 237 220 134 26 354 68 82 35 310 192 171 127 107 109 95 108 113 106 100 87 70 44 48 51 43 68 70 154 212 216 216 228 224 223 225 229 233 232 237 241 242
274 343 188 212 72 143 178 48 93 84 37 13 46 84 87 100 90 79 72 89 89 76 72 51 44 49 43 34 42 67 81 110 199 218 218 218 220 225 228 227 231 237 238 239
208 176 103 137 73 103 286 25 320 123 45 15 22 79 102 98 85 67 62 64 75 77 72 71 62 58 50 28 24 52 63 71 80 66 222 228 227 225 225 225 229 234 233 235
149 232 130 111 117 149 152 327 322 311 73 10 29 43 6 250 112 92 67 67 58 60 76 77 71 58 50 39 25 41 40 31 19 0 334 289 241 233 234 230 231 234 231 235
15 348 86 74 101 327 35 324 273 120 161 85 76 59 60 82 68 86 75 59 55 58 64 77 87 79 53 45 43 45 36 18 351 346 341 327 303 268 251 245 240 236 233 234
87 50 40 8 80 1 353 341 126 128 67 106 88 77 87 77 70 65 52 28 18 12 39 43 36 49 48 41 33 30 21 11 356 346 353 348 338 319 298 260 238 235 233 234
60 38 95 32 79 5 360 24 18 13 108 86 100 109 101 111 102 77 103 283 39 30 32 35 38 38 39 34 33 32 14 17 11 356 345 351 344 339 335 287 244 233 232 228
11 22 80 121 354 18 28 16 17 17 17 21 36 92 102 113 121 134 109 47 30 40 40 26 38 49 14 5 35 33 21 23 22 11 354 347 347 348 347 348 271 240 229 227
259 1 38 74 336 93 50 21 3 352 2 15 14 2 82 109 146 148 132 141 81 69 46 40 17 36 16 8 20 21 20 20 24 21 3 360 355 352 343 337 324 310 255 240
339 176 99 125 168 141 292 346 346 345 351 341 349 353 24 341 283 322 330 44 38 82 77 90 23 24 19 18 17 17 22 16 15 23 12 10 2 358 350 341 328 316 301 273